Regional Weather Roundup
Issued by NWS Newport/Morehead, NC

Home | Current Version | Previous Version | Text Only | Print | Product List | Glossary On
Versions: 1 2 3 4 5 6 7 8 9 10 11 12 13 14 15 16 17 18 19 20 21 22 23 24 25 26 27 28 29 30 31 32 33 34 35 36 37 38 39 40 41 42 43 44 45 46 47 48 49 50
000
ASUS42 KMHX 181325
RWRMHX
WEATHER ROUNDUP FOR EASTERN NORTH CAROLINA
NATIONAL WEATHER SERVICE NEWPORT/MOREHEAD CITY NC
800 AM EST SAT NOV 18 2017

NOTE: "FAIR" INDICATES FEW OR NO CLOUDS BELOW 12,000 FEET
WITH NO SIGNIFICANT WEATHER AND/OR OBSTRUCTIONS TO VISIBILITY

NCZ015>017-031-032-045>047-102-103-181400-
NORTH COAST

CITY           SKY/WX    TMP DP  RH WIND       PRES   REMARKS
EDENTON        MOSUNNY   49  43  81 S9        30.06F
ELIZABETH CITY MOSUNNY   48  44  86 S8        30.06F
KITTY HAWK     SUNNY     48  39  70 CALM      30.06F
MANTEO         SUNNY     50  37  60 SW9       30.08S

$$

NCZ045>047-081-094-103-104-181400-
CENTRAL COAST

CITY           SKY/WX    TMP DP  RH WIND       PRES   REMARKS
FRISCO         SUNNY     48  47  96 E3        30.08F

$$

NCZ095-097-098-100-101-181400-
SOUTHERN COAST

CITY           SKY/WX    TMP DP  RH WIND       PRES   REMARKS
BEAUFORT       MOSUNNY   49  43  80 E3        30.08F
CEDAR ISLAND   NOT AVBL
JACKSONVILLE   CLOUDY    42  40  92 CALM      30.08F
PINEY ISLAND   NOT AVBL
WILMINGTON     SUNNY     42  40  92 CALM      30.09R


$$

NCZ011>013-027>030-043-044-078>080-089-090>093-098-181400-
COASTAL PLAIN

CITY           SKY/WX    TMP DP  RH WIND       PRES   REMARKS
AHOSKIE        CLOUDY    39  37  91 CALM      30.05S
CLINTON        SUNNY     37  37 100 CALM      30.07F
ELIZABETHTOWN  NOT AVBL
GOLDSBORO      MOSUNNY   37  35  91 CALM      30.04F
GREENVILLE     MOSUNNY   41  41 100 CALM      30.08S
HAVELOCK       SUNNY     42  40  92 SE5       30.09F
KENANSVILLE    MOSUNNY   36  36 100 CALM      30.07F FOG
KINSTON        MOSUNNY   36  36 100 CALM      30.08F
NEW BERN       MOSUNNY   39  39 100 CALM      30.09F
RICHLANDS      CLOUDY    38  37  97 CALM      30.08S
ROCKY MOUNT    CLOUDY    38  37  97 CALM      30.04F
WASHINGTON     CLOUDY    43  39  86 S3        30.07F
WHITEVILLE     SUNNY     42  40  94 CALM      30.06S

$$

AMZ130-135-150-152-154-156-158-170-250-252-270-ANZ085-086-088-633-658-670-181400-
MARINE OBSERVATIONS

STATION/POSITION TIME  TEMP    WIND        PRES    WAVE   SWELL
                       AIR SEA DIR/SP/G            HT/PER HT/PER
                 (UTC) (F)     (DEG/KT/KT) (MB)    (FT/S) (FT/S)
CHESAPEAKE LIGHT NOT AVBL
64 E VA BEACH    1250   55 60  220/ 16/ 17 1018.0    3/11   2/11
DUCK             NOT AVBL
2 E DUCK         1300      58                N/A     2/11   2/11
OREGON INLET     NOT AVBL
13E OREGON INLT  1248      60                N/A     3/11   2/11
HATTERAS CG      NOT AVBL
DIAMOND BUOY     1300   58 64   50/  4/  6 1018.8
CAPE LOOKOUT     1300   56     360/  3/  3 1018.9
BEAUFORT LAB     NOT AVBL
30 SE NEW RVR IN 1308   61 70  100/  4/  6 1018.5
30 SE NEW RVR IN 1300      70                N/A     3/12   2/12
27 SE WRIGHTSVLE 1308   63 67  130/  2/  6 1018.1
5 SE WRIGHTSVLE  1308   59 64  140/  2/  6 1018.4
225 S CAPE HAT   1250   69 77  140/  4/ 10 1019.2    6/12   7/12
41 SE CHARLESTON 1300   69 76  110/  8/ 12 1017.4

$$




USA.gov is the U.S. government's official web portal to all federal, state and local government web resources and services.